Location: Clanezzo
(45.7500°N, 9.6000°E)
Time: 13:43:25
(UTC+00:00)

Cosmos 1515 - Pass Details

Date: 12 May 2021
Orbit: 506 x 513 km, 82.5° (Epoch: 19 June)

Event Time Altitude Azimuth Distance (km) Brightness Sun altitude
Exits shadow 21:47:18 56° 51° (NE) 607 4.0 -22.7°
Drops below altitude 10° 21:50:32 10° 14° (NNE) 1,734 7.1 -22.9°
Sets 21:52:41 0° 12° (NNE) 2,625 8.2 -23.0°
